Regional Weather Roundup
Issued by NWS

Home | Current Version | Previous Version | Graphics & Text | Print | Product List | Glossary On
Versions: 1 2 3 4 5 6 7 8 9 10 11 12 13 14 15 16 17 18 19 20 21 22 23 24 25 26 27
000
ASUS45 KBOU 211207
RWRCO

WEATHER ROUNDUP FOR COLORADO
NATIONAL WEATHER SERVICE DENVER/BOULDER CO
600 AM MDT MON AUG 21 2017

NOTE: "FAIR" INDICATES FEW OR NO CLOUDS BELOW 12000 FEET WITH NO
SIGNIFICANT WEATHER AND/OR OBSTRUCTIONS TO VISIBILITY.

COZ001>005-013-030-031-211300-
...NORTHWEST COLORADO...

CITY           SKY/WX    TMP DP  RH WIND       PRES   REMARKS
CRAIG          FAIR      43  37  79 SE5       30.25R
HAYDEN         FAIR      52  39  61 E10       30.27S
MEEKER         FAIR      53  41  63 N3        30.25R
RABBIT EARS PA FAIR      52  32  46 W7        30.53R
STEAMBOAT SPGS FAIR      43  38  82 CALM      30.29R
WALDEN         FAIR      39  32  75 E3        30.38R
$$

COZ006>008-011-211300-
...WEST CENTRAL VALLEYS...

CITY           SKY/WX    TMP DP  RH WIND       PRES   REMARKS
GRAND JUNCTION FAIR      65  37  35 SE5       30.11R
MONTROSE       FAIR      63  41  44 SE9       30.21R
EAGLE          FAIR      52  37  56 SE3       30.30R
RIFLE          FAIR      59  42  53 CALM      30.19R
DELTA          FAIR      62  41  46 NE5       30.16S
NUCLA          FAIR      59  39  47 SE8       30.26R
$$

COZ017>023-064>068-211300-
...SOUTHWEST COLORADO...

CITY           SKY/WX    TMP DP  RH WIND       PRES   REMARKS
DURANGO        FAIR      55  45  68 N3        30.28R
CORTEZ         FAIR      55  51  86 NW5       30.22S
PAGOSA SPRINGS FAIR      51  41  69 CALM      30.34S
TELLURIDE      FAIR      52  39  60 SE5       30.45S
WOLF CREEK PAS CLOUDY    43  34  70 SW3       30.65R
$$

COZ009-010-012-014-032>034-037-058>063-211300-
...CENTRAL COLORADO...

CITY           SKY/WX    TMP DP  RH WIND       PRES   REMARKS
ASPEN          FAIR      53  38  56 SW8       30.33R
BUENA VISTA    FAIR      51  40  65 NE6       30.35R
COPPER MTN     FAIR      52  32  46 W3        30.62S
BERTHOUD PASS  FAIR      43  37  81 NW17      30.65S
COTTONWOOD PAS FAIR      59  32  36 SW9G17    30.46R
GUNNISON       FAIR      48  40  73 CALM      30.35S
KREMMLING      FAIR      45  37  76 CALM      30.35S
LEADVILLE      FAIR      38  34  85 N6        30.47S
MONARCH PASS   MOCLDY    45  34  65 W13       30.71R
SALIDA         FAIR      56  44  63 W6        30.39S
SUNLIGHT       FAIR      52  30  43 W5        30.57R
WILKERSON PASS FAIR      50  32  50 NW5       30.58S
$$

COZ069>075-211300-
...SAN LUIS VALLEY/SANGRE DE CRISTO MOUNTAINS...

CITY           SKY/WX    TMP DP  RH WIND       PRES   REMARKS
ALAMOSA        FAIR      48  43  82 SE6       30.32R
DEL NORTE      MOCLDY    51  40  67 NW6       30.35R
LA VETA PASS   NOT AVBL
SAGUACHE       FAIR      46  39  76 NW6       30.34S
$$

COZ035-036-038>040-211300-
...NORTHERN COLORADO FRONT RANGE...

CITY           SKY/WX    TMP DP  RH WIND       PRES   REMARKS
DENVER INTL AP MOCLDY    65  43  44 SW9       30.10R
DMNS CITY PARK   N/A     64  45  49 SW3       30.11R
AURORA         MOCLDY    62  44  52 S9        30.12S
FRONT RANGE AP FAIR      68  43  40 SW9       30.12R
ERIE MUNI ARPT FAIR      55  45  68 SW3       30.15R
BOULDER MUN AP FAIR      63  45  51 W3        30.10S
CENTENNIAL     FAIR      61  43  51 CALM      30.13S
BROOMFIELD     MOCLDY    64  39  39 NW7       30.13
FORT COLLINS   FAIR      59  49  69 SE6       30.09S
LONGMONT       FAIR      55  47  72 CALM      30.11R
$$

COZ041-046-047-076>085-087-088-211300-
...PIKES PEAK/PALMER DIVIDE AND SOUTHERN FOOTHILLS...

CITY           SKY/WX    TMP DP  RH WIND       PRES   REMARKS
COLO. SPRINGS  FAIR      64  44  48 N10       30.17R
A. F. ACADEMY  FAIR      65  40  39 NE8       30.19R
SCHRIEVER AFB  FAIR      65  40  39 NW10      30.16S
CHEYENNE MTN   FAIR      66  38  36 W5        30.16S
ELLICOTT       NOT AVBL
FALCON         FAIR      64  38  39 NW12      30.22S
FORT CARSON    FAIR      63  43  48 W3        30.13R
LIMON          FAIR      52  46  80 N6        30.11R
MONUMENT HILL  FAIR      59  41  51 SW8       30.24S
CANON CITY     CLEAR     68  46  45 W13       30.12R
WALSENBURG     FAIR      63  45  51 SW9       30.17S
TRINIDAD       FAIR      65  51  60 W17       30.15F
$$

COZ042>045-048>051-090-091-211300-
...NORTHEAST COLORADO...

CITY           SKY/WX    TMP DP  RH WIND       PRES   REMARKS
GREELEY ARPT   FAIR      56  53  90 W6        30.07S
AKRON          FAIR      63  47  55 W13       30.04S
BURLINGTON     FAIR      60  59  96 SW8       30.03S
WRAY           NOT AVBL
YUMA           FAIR      55  43  62 W8        30.00S
STERLING       MOCLDY    61  61 100 CALM      30.01R FOG
HOLYOKE        FAIR      61  59  94 CALM      29.99R FOG
FORT MORGAN    FAIR      59  55  87 W6        30.04S
$$

COZ086-089-092>099-211300-
...SOUTHEAST COLORADO...

CITY           SKY/WX    TMP DP  RH WIND       PRES   REMARKS
PUEBLO         FAIR      61  47  59 W6        30.07R
LA JUNTA       MOCLDY    69  51  52 SW14      30.04R
LAMAR          FAIR      66  56  70 S9        30.00R
SPRINGFIELD      N/A     63  59  87 S14       30.09R
$$




USA.gov is the U.S. government's official web portal to all federal, state and local government web resources and services.